Location: Oregon Trail
(41.1872°N, 102.0741°W)
Time: 07:56:13
(UTC+00:00)

Cosmos 2237 Rocket - Pass Details

Date: 19 November 2019
Orbit: 834 x 850 km, 71.0° (Epoch: 15 December)

Event Time Altitude Azimuth Distance (km) Brightness Sun altitude
Rises 12:52:51 0° 346° (NNW) 3,420 5.0 -9.2°
Reaches altitude 10° 12:55:50 10° 0° (N) 2,478 4.5 -8.7°
Maximum altitude 13:00:19 23° 53° (NE) 1,711 4.2 -7.9°
Drops below altitude 10° 13:04:46 10° 105° (ESE) 2,460 6.4 -7.1°
Sets 13:07:42 0° 119° (ESE) 3,387 7.6 -6.6°
